BELINTERSAT-1

Last updated on Nov. 13, 2019, 4:20 a.m. UTC

1 41238U 16001A   19316.77132858  .00000121  00000-0  00000+0 0  9990
2 41238   0.0243 316.5446 0001827 217.6484 206.5998  1.00272675 14103
UTC
Height (km)
Latitude
Longitude
Inclination
Orbital Period
UTC large
Height (km)
Speed (km/s)
/
Latitude / Longitude
Inclination (degrees)
Orbital Period (minutes)
Azimuth
Elevation
Range (km)
Doppler Factor
iOS Compass Heading
iOS Angle

Next 30 passes for location: Hong Kong

Rise time Rise Azimuth (degrees) Set time Set Azimuth (degrees) Duration Max altitude (degrees)

No matching passes for this satellites